Погода Шауляй

Погода Шауляй : погода сейчас, прогноз погоды и архив. Всё, что Вы хотите узнать о погоде Шауляй!

Поиск расширенной информации на нашем сайте:

Полезная информация: Подробное описание очистка вентиляции от жировых отложений тут.

Другие новости

Новости СМИ2

Главная страница сайта

Новости сайта

02.10.2013

Напоминаем, что на нашем новом сайте вы можете получить высокодетализированные прогнозы погоды по пунктам России, СНГ и мира (включающие важные для авиации метеовеличины, такие как направление и скорость ветра, видимость, явления погоды, количество и форма облачности, нижняя и верхняя граница облачности), а также ознакомиться с разнообразными материалами по авиационной метеорологии и подборкой полезных ссылок на эту тему.

Сайт Метеоцентр.Азия посвящён разработке технологий оптимизации авиаметеорологического обслуживания, включая проектирование и перспективное создание нескольких автоматизированных авиаметеорологических систем:
- система выпуска высокодетальных прогностических карт явлений погоды для нижнего воздушного пространства по России и ближнему зарубежью;
- система верификации прогнозов TAF (выпускаемых синоптиками официальных АМСГ РФ и ближнего зарубежья) и AUTOTAF (выпускаемых сайтом Метеоцентр.Азия) - выявление ошибок, онлайн-сопоставление с фактической погодой METAR, автоматическое внесение коррективов в прогнозы при резком отклонении фактической погоды от прогноза, подсчёт оправдываемости прогнозов по элементам и в целом;
- система обработки, анализа и отображения авиаметеорологической информации для применения провайдерами метеорологической информации.

Рекомендуем: лимузины дешево москва

Погода Шауляй - сегодня

Время (UTC), дата Ветер
(°,м/с) 
Видим.   Явления Облачность Т
(°С)
Тd
(°С)
f(%) Тe
(°С)
Pmin
(гПа)
dP
(гПа)
Po
(мм)
O2
(г/м3)
Тmin Tmax R s Состояние
почвы
12 25.05.17 290 (З) 3-6{08}  10 км  слаб. ливневой дождь  8/8 1000 м кучево-дожд. 
[Cb cap]
+21.8 +6.5 37 +22  1013  -0.8  750  279      0.0     
15 25.05.17 200 (Ю) 3-5{10}  20000 м  в посл. час гроза{ливн. осадки} [макс. диам. градин 4 мм]  8/5 1000 м кучево-дожд., средняя 
[Cb cap|Ac trans]
+16 +11.2 73 +19  1014.2  751  284           
18 25.05.17 270 (З) 2-4{06}  20000 м  {гроза, ливн. осадки} [макс. диам. градин 0 мм]  8/3 1000 м средняя, верхняя 
[Sc diur, vesp|Ac trans|Ci fib]
+15.9 +10.4 70 +19  1013.6  -0.6  751  284    +22.3     
21 25.05.17 260 (З) 1-5{07}  20000 м    6/0 средняя, верхняя 
[Ac trans|Ci fib]
+11.3 +8.2 81 +12  1014.3  0.5  751  289           
00 26.05.17 280 (З) 1-4{07}  10 км  слаб. ливневой дождь  10/10 300 м кучево-дожд. 
[Cb cap]
+10.6 +9.2 91 +12  1014.8  0.5  751  290      0.2     
03 26.05.17 тихо () -3{04}  8000 м  в посл. час дождь{ливн. осадки}  10/10 300 м 
[St]
+10.1 +9 93 +10  1015.3  0.4  752  290           
06 26.05.17 360 (С) 1-3{04}  19000 м  {ливн. осадки, дождь}  4/3 1000 м средняя 
[Sc|Ac trans]
+12 +9.4 84 +13  1015.9  0.7  752  289  +10    0.3    влажная 
09 26.05.17 тихо () -2{04}  20000 м    8/6 1000 м средняя 
[Cu med, cong|Ac trans]
+15.2 +7.8 61 +15  1016.7  753  286           
12 26.05.17 340 (С) 2-4{06}  20000 м    9/8 1000 м средняя 
[Cu Sc|Ac trans]
+16.2 +6.4 52 +17  1017.1  0.4  753  285           
18 26.05.17 тихо () -2{06}  20000 м    3/3 1000 м средняя 
[Sc diur, vesp|Ac trans]
+14.7 +7.1 60 +15  1018.2  0.9  754  287    +17.4       
03 27.05.17 310 (СЗ) 3-4{05}  20000 м    1/0 верхняя 
[Ci fib]
+6.8 +4.7 86 +6  1022.1  0.9  757  297           
06 27.05.17 330 (СЗ) 4-8{08}  20000 м    1/0 верхняя 
[Ci fib]
+12 +4.5 60 +11  1023  1.1  757  292  +6.5        влажная 
12 27.05.17 350 (С) 1-3{07}  20000 м  {ливн. осадки}  9/8 1000 м средняя 
[Sc|Ac trans]
+15.6 +7.1 57 +17  1023.1  -0.2  758  288      0.0     
18 27.05.17 270 (З) 2-7{12}  20000 м    3/0 верхняя 
[Ci fib]
+18.8 +5.3 41 +20  1020.2  -0.7  756  284    +21.7  0.0     
03 28.05.17 230 (ЮЗ) 1-3{05}  20000 м    1/0 верхняя 
[Ci fib]
+11.2 +6.8 74 +12  1020  -0.6  755  291           
06 28.05.17 250 (З) 2-4{06}  20000 м    3/0 верхняя 
[Ci sp]
+17.6 +11.2 66 +21  1019.3  -0.4  755  284  +10.8        сухая 
18 28.05.17 230 (ЮЗ) 2-4{12}  18000 м    9/0 верхняя 
[Cs]
+22.2 +8.9 43 +22  1014.4  -1.8  751  278    +26.5       
03 29.05.17 240 (ЮЗ) 4-7{10}  20000 м  {ливн. осадки}  5/3 1000 м средняя, верхняя 
[Sc|Ac lent|Ci sp]
+18.6 +11.1 62 +22  1007.3  -2.2  746  279           
06 29.05.17 250 (З) 4-8{10}  20000 м  {ливн. осадки}  3/3 1000 м 
[Sc]
+18.4 +13.1 71 +25  1007.1  -0.2  746  279  +17.8    0.0    сухая 
12 29.05.17 320 (СЗ) 5-10{11}  20000 м    9/9 1000 м 
[Sc]
+19.7 +13.4 67 +26  1008.6  0.8  747  278           
15 29.05.17 310 (СЗ) 5-9{10}  18000 м    6/6 1000 м 
[Cu Sc]
+19.9 +12.6 63 +25  1008.9  0.3  747  278           
18 29.05.17 310 (СЗ) 4-7{11}  20000 м    6/3 600 м верхняя 
[Sc|Ci sp]
+17.8 +12.8 73 +23  1009.5  0.5  748  280    +21.4       
21 29.05.17 300 (СЗ) 2-4{07}  20000 м    3/0 верхняя 
[Ci fib]
+14.1 +12.1 88 +19  1010.7  1.1  748  284           
00 30.05.17 320 (СЗ) 3-5{07}  20000 м    1/0 верхняя 
[Ci fib]
+9.7 +6.7 82 +9  1011.6  0.7  749  290           
03 30.05.17 320 (СЗ) 2-4{05}  20000 м    3/0 верхняя 
[Ci fib]
+6.6 +5 90 +6  1012.4  0.6  749  294           
Время (UTC), дата Ветер
(°,м/с) 
Видим.   Явления Облачность Т
(°С)
Тd
(°С)
f(%) Тe
(°С)
Pmin
(гПа)
dP
(гПа)
Po
(мм)
O2
(г/м3)
Тmin Tmax R s Состояние
почвы

Для получения пояснительной информации подведите курсор к названию столбца.

ПОГОДА Шауляй - архив

Всё, что Вы хотите узнать о погоде Шауляй - удобно и подробно!

Выберите нужную дату (начиная с 1 января 2015* года) и нажмите кнопку "Найти".
Будут отображены архивные сводки погоды по пункту Шауляй, начиная с указанной даты.


Отображать данные в формате CSV (для использования в таблицах Excel)


Внимание! Наш архив погоды предназначен исключительно для личного некоммерческого использования в познавательных целях. Если Вам необходимы официальные справки о состоянии погоды (для производственных, юридических, коммерческих и т.п. целей), обращайтесь в органы Росгидромета.

*Примечание: данная дата относится к архиву по метеостанциям СССР (Россия, СНГ, Балтия).
Архив по метеостанциям Зарубежной Европы и Азии (кроме Китая) хранится 10 дней, по другим регионам земного шара (Китай, Африка, Америка, Австралия, Океания) - 1 день.

Шауляй - район местоположения метеостанции


Название, широта, долгота, высота метеостанции:
Шауляй 55.9°ш. 23.3°д. 107 м над ур. моря [Литва]

Дополнительная информация

В oтличие oт бoльшинства пoгoдных сайтoв мы публикуем пoдрoбную метеoинфoрмацию в детальнoм прoфессиoнальнoм фoрмате.

Характеристики температуры и влажнoсти вoздуха измеряются на высoте 2 м в тени вдали oт зданий и деревьев.
Скoрoсть ветра измеряется на высoте 10 м (на урoвне рoста челoвека скoрoсть ветра ниже в 1.5-2 раза). Если метеoстанция нахoдится в гoрoде или в лесу, тo скoрoсть ветра занижена на 2-4 м/с пo сравнению с oткрытым местoм. Скoрoсть ветра над акватoриями крупных рек и oзёр, а также на вершинах хoлмoв на 2-5 м/с выше, чем в oбычных услoвиях.
Атмoсфернoе давление в разных тoчках местнoсти мoжет значительнo oтличаться oт давления на метеoстанции, в зависимoсти oт услoвий рельефа (при пoдъёме на 10 м давление пoнижается примернo на 1 мм рт.ст.).